Regional Weather Roundup
Issued by NWS

Home | Current Version | Previous Version | Text Only | Print | Product List | Glossary On
Versions: 1 2 3 4 5 6 7 8 9 10 11 12 13 14 15 16 17 18 19 20 21 22 23 24 25 26 27 28 29 30 31 32 33 34 35 36 37 38 39 40 41 42 43 44 45 46 47 48 49 50
230
ASUS43 KIND 221709
RWRIN

WEATHER ROUNDUP FOR INDIANA
NATIONAL WEATHER SERVICE INDIANAPOLIS IN
100 PM EDT FRI MAY 22 2015

NOTE: "FAIR" INDICATES FEW OR NO CLOUDS BELOW 12,000 FEET WITH NO
SIGNIFICANT WEATHER AND/OR OBSTRUCTIONS TO VISIBILITY.

* - STATION DOES NOT REPORT WEATHER SUCH AS PRECIPITATION OR FOG.

+ - STATION NOT QUALITY CONTROLLED BY THE NATIONAL WEATHER SERVICE.
    USE DATA WITH CAUTION...ESPECIALLY DEWPOINT AND RELATIVE
    HUMIDITY OBSERVATIONS.

INZ001>003-010>013-019-020-221800-
NORTHWEST INDIANA

CITY           SKY/WX    TMP DP  RH WIND       PRES   REMARKS
GARY /AIRPORT/ MOSUNNY   57  43  58 N7        30.25R
KNOX *+        SUNNY     68  39  34 N5        30.20S
LA PORTE +     SUNNY     69  35  28 CALM      30.22R
MICHIGAN CITY+ SUNNY     63  41  45 N10       30.23R
MONTICELLO +   SUNNY     68  46  45 NE3       30.20R
RENSSELAER +   SUNNY     70  43  37 NE7       30.20S
VALPARAISO     MOSUNNY   69  43  38 N5        30.22R

$$

LMZ046-743>745-221800-
SOUTHERN LAKE MICHIGAN

STATION/POSITION TIME  TEMP    WIND        PRES    WAVE
                       AIR SEA DIR/SP/G            HT
                 (UTC) (F)     (DEG/KT/KT) (MB)    (FT)
BURNS HARBOR     1700   49      30/  8/  9 1024.4S
MICHIGAN CITY    1700   50     350/ 13/ 14   N/A
5NW MICH CITY    1700   48 51   20/ 12/ 16   N/A     2

$$

INZ004-005-014>016-021>024-221800-
NORTH CENTRAL INDIANA

CITY           SKY/WX    TMP DP  RH WIND       PRES   REMARKS
ELKHART        SUNNY     64  32  29 CALM      30.23R
GOSHEN         SUNNY     65  40  39 CALM      30.21R
LOGANSPORT +   SUNNY     68  39  34 NE6       30.21S
PERU/GRISSOM   SUNNY     67  48  49 N5        30.19S
ROCHESTER +    SUNNY     70  43  37 CALM      30.20S
SOUTH BEND     SUNNY     66  32  28 CALM      30.22R
WARSAW +       SUNNY     64  37  36 CALM      30.21R

$$

INZ006>009-017-018-025>027-221800-
NORTHEAST INDIANA

CITY           SKY/WX    TMP DP  RH WIND       PRES   REMARKS
ANGOLA *+      SUNNY     64  55  72 N7        30.20S
AUBURN +       SUNNY     64  32  29 W3        30.21S
FORT WAYNE     MOSUNNY   67  41  38 N6        30.21R
HUNTINGTON +   SUNNY     66  47  51 NE3       30.20S

$$

INZ028-029-035-036-043>045-051>053-221800-
WEST CENTRAL INDIANA

CITY           SKY/WX    TMP DP  RH WIND       PRES   REMARKS
CRAWFORDSVL +  SUNNY     67  44  43 SW7       30.20F
GREENCASTLE +  SUNNY     68  46  45 S6        30.21F
LAFAYETTE      SUNNY     68  50  52 W6        30.20S
TERRE HAUTE    SUNNY     69  50  50 SW8       30.22S

$$

INZ030>032-037>040-046>048-054>057-064-065-221800-
CENTRAL INDIANA

CITY           SKY/WX    TMP DP  RH WIND       PRES   REMARKS
ANDERSON       SUNNY     66  43  42 W6        30.21S
CP ATTERBURY + SUNNY     70  48  46 SW10G16   30.21S
COLUMBUS       SUNNY     68  45  42 SW9       30.21
FISHERS *+     SUNNY     68  54  60 CALM      30.20S
FRANKFORT +    SUNNY     70  49  48 CALM      30.22S
GREENWOOD *+   SUNNY     70  46  43 W8        30.21S
INDIANAPOLIS   MOSUNNY   69  48  47 W9        30.20R
-EAGLE CREEK   SUNNY     68  49  50 W8        30.19F
KOKOMO *+      SUNNY     70  48  46 CALM      30.20S
MARION +       SUNNY     65  47  51 N5        30.21S
MT COMFORT *+  SUNNY     70  34  26 W8        30.21S
SHELBYVILLE    SUNNY     72  48  42 W12       30.20R
ZIONSVILLE +   SUNNY     69  47  44 W8        30.21S

$$

INZ033-034-041-042-049-050-058-059-221800-
EAST CENTRAL INDIANA

CITY           SKY/WX    TMP DP  RH WIND       PRES   REMARKS
MUNCIE         SUNNY     68  49  50 W9        30.20S

$$

INZ060-061-067>069-081>083-085>088-221800-
SOUTHWEST INDIANA

CITY           SKY/WX    TMP DP  RH WIND       PRES   REMARKS
EVANSVILLE     SUNNY     69  50  50 SW8       30.27F
HUNTINGBURG *+ SUNNY     70  50  49 SW15      30.26F
WASHINGTON +   SUNNY     69  43  39 W7        30.23F

$$

INZ062-063-066-070>080-084-089>092-221800-
SOUTH CENTRAL AND SOUTHEAST INDIANA

CITY           SKY/WX    TMP DP  RH WIND       PRES   REMARKS
BLOOMINGTON    SUNNY     68  48  48 SW10G20   30.22F
MADISON *+     SUNNY     70  43  37 SW8G17    30.25F
NORTH VERNON + SUNNY     70  48  46 SW13      30.23S
SEYMOUR +      SUNNY     73  48  40 SW9G18    30.23S

$$




USA.gov is the U.S. government's official web portal to all federal, state and local government web resources and services.